• In Deutschland
  • Länderverzeichnis
  • Für 7 Tage
  • Wassertemperatur
  • Satellitenkarten
  • Wetterkarte
  • Widgets
  • user-avatar
    Anmelden

    Stündliche Wetter Kiustendil

    Heute, 17 August, Freitag

    Zeit Temperatur Niederschläge Wind Luftdruck Luftfeuchtigkeit
    00:00 +12°C° 0 mm 1 m/S 626 mmHg 60%
    01:00 +12°C° 0 mm 1 m/S 626 mmHg 63%
    02:00 +12°C° 0 mm 1 m/S 626 mmHg 65%
    03:00 +11°C° 0 mm 1 m/S 626 mmHg 67%
    04:00 +11°C° 0 mm 1 m/S 625 mmHg 69%
    05:00 +12°C° 0 mm 1 m/S 626 mmHg 63%
    06:00 +14°C° 0 mm 1 m/S 627 mmHg 58%
    07:00 +16°C° 0 mm 1 m/S 628 mmHg 52%
    08:00 +18°C° 0 mm 2 m/S 628 mmHg 46%
    09:00 +20°C° 0 mm 2 m/S 629 mmHg 39%
    10:00 +23°C° 0 mm 2 m/S 630 mmHg 33%
    11:00 +24°C° 0 mm 2 m/S 630 mmHg 31%
    12:00 +24°C° 0 mm 2 m/S 630 mmHg 29%
    13:00 +25°C° 0 mm 2 m/S 630 mmHg 27%
    14:00 +24°C° 0 mm 2 m/S 629 mmHg 29%
    15:00 +23°C° 0 mm 2 m/S 629 mmHg 30%
    16:00 +23°C° 0 mm 1 m/S 629 mmHg 32%
    17:00 +21°C° 0 mm 1 m/S 628 mmHg 36%
    18:00 +19°C° 0 mm 1 m/S 628 mmHg 39%
    19:00 +18°C° 0 mm 1 m/S 627 mmHg 43%
    20:00 +16°C° 0 mm 1 m/S 627 mmHg 46%
    21:00 +15°C° 0 mm 1 m/S 627 mmHg 49%
    22:00 +14°C° 0 mm 1 m/S 627 mmHg 53%
    23:00 +13°C° 0 mm 1 m/S 627 mmHg 55%

    Morgen, 18 August, Samstag

    Zeit Temperatur Niederschläge Wind Luftdruck Luftfeuchtigkeit
    00:00 +13°C° 0 mm 1 m/S 627 mmHg 57%
    01:00 +12°C° 0 mm 1 m/S 627 mmHg 59%
    02:00 +12°C° 0 mm 1 m/S 626 mmHg 61%
    03:00 +11°C° 0 mm 1 m/S 626 mmHg 63%
    04:00 +11°C° 0 mm 1 m/S 626 mmHg 65%
    05:00 +13°C° 0 mm 1 m/S 627 mmHg 59%
    06:00 +15°C° 0 mm 1 m/S 628 mmHg 53%
    07:00 +18°C° 0 mm 1 m/S 629 mmHg 47%
    08:00 +19°C° 0 mm 2 m/S 630 mmHg 42%
    09:00 +21°C° 0 mm 2 m/S 630 mmHg 37%
    10:00 +24°C° 0 mm 2 m/S 631 mmHg 32%
    11:00 +24°C° 0 mm 2 m/S 631 mmHg 30%
    12:00 +25°C° 0 mm 2 m/S 631 mmHg 28%
    13:00 +26°C° 0 mm 2 m/S 631 mmHg 27%
    14:00 +25°C° 0 mm 2 m/S 631 mmHg 28%
    15:00 +25°C° 0 mm 2 m/S 630 mmHg 30%
    16:00 +24°C° 0 mm 2 m/S 630 mmHg 31%
    17:00 +21°C° 0 mm 2 m/S 629 mmHg 36%
    18:00 +19°C° 0 mm 2 m/S 629 mmHg 40%
    19:00 +17°C° 0 mm 2 m/S 628 mmHg 45%
    20:00 +16°C° 0 mm 2 m/S 628 mmHg 48%
    21:00 +15°C° 0 mm 2 m/S 628 mmHg 52%
    22:00 +14°C° 0 mm 1 m/S 628 mmHg 55%
    23:00 +14°C° 0 mm 1 m/S 628 mmHg 57%

    übermorgen, 19 August, Sonntag

    Zeit Temperatur Niederschläge Wind Luftdruck Luftfeuchtigkeit
    00:00 +13°C° 0 mm 1 m/S 628 mmHg 59%
    01:00 +12°C° 0 mm 1 m/S 627 mmHg 61%
    02:00 +12°C° 0 mm 1 m/S 627 mmHg 62%
    03:00 +12°C° 0 mm 1 m/S 627 mmHg 64%
    04:00 +11°C° 0 mm 1 m/S 627 mmHg 66%
    05:00 +13°C° 0 mm 1 m/S 628 mmHg 60%
    06:00 +15°C° 0 mm 1 m/S 629 mmHg 54%
    07:00 +18°C° 0 mm 1 m/S 629 mmHg 48%
    08:00 +20°C° 0 mm 1 m/S 630 mmHg 43%
    09:00 +21°C° 0 mm 2 m/S 631 mmHg 37%
    10:00 +24°C° 0 mm 2 m/S 631 mmHg 32%
    11:00 +25°C° 0 mm 2 m/S 631 mmHg 31%
    12:00 +25°C° 0 mm 2 m/S 631 mmHg 29%
    13:00 +25°C° 0 mm 2 m/S 631 mmHg 28%
    14:00 +25°C° 0 mm 2 m/S 630 mmHg 30%
    15:00 +24°C° 0 mm 1 m/S 630 mmHg 31%
    16:00 +23°C° 0 mm 1 m/S 629 mmHg 33%
    17:00 +21°C° 0,2 mm 1 m/S 629 mmHg 38%
    18:00 +20°C° 0,2 mm 1 m/S 628 mmHg 43%
    19:00 +18°C° 0,2 mm 1 m/S 628 mmHg 47%
    20:00 +16°C° 0 mm 1 m/S 628 mmHg 50%
    21:00 +15°C° 0 mm 1 m/S 627 mmHg 53%
    22:00 +14°C° 0 mm 1 m/S 627 mmHg 55%
    23:00 +13°C° 0 mm 1 m/S 627 mmHg 57%

    20 August, Montag

    Zeit Temperatur Niederschläge Wind Luftdruck Luftfeuchtigkeit
    00:00 +13°C° 0 mm 1 m/S 627 mmHg 58%
    01:00 +12°C° 0 mm 1 m/S 627 mmHg 59%
    02:00 +12°C° 0 mm 1 m/S 626 mmHg 60%
    03:00 +11°C° 0 mm 1 m/S 626 mmHg 61%
    04:00 +11°C° 0 mm 1 m/S 626 mmHg 62%
    05:00 +13°C° 0 mm 1 m/S 627 mmHg 57%
    06:00 +15°C° 0 mm 1 m/S 627 mmHg 52%
    07:00 +18°C° 0 mm 1 m/S 628 mmHg 46%
    08:00 +20°C° 0 mm 1 m/S 629 mmHg 41%
    09:00 +21°C° 0 mm 2 m/S 630 mmHg 37%
    10:00 +24°C° 0 mm 2 m/S 630 mmHg 32%
    11:00 +24°C° 0 mm 2 m/S 630 mmHg 31%
    12:00 +24°C° 0 mm 2 m/S 630 mmHg 30%
    13:00 +25°C° 0 mm 2 m/S 630 mmHg 29%
    14:00 +24°C° 0 mm 2 m/S 630 mmHg 31%
    15:00 +24°C° 0 mm 2 m/S 629 mmHg 33%
    16:00 +23°C° 0 mm 2 m/S 629 mmHg 35%
    17:00 +20°C° 0 mm 2 m/S 628 mmHg 41%
    18:00 +18°C° 0 mm 2 m/S 628 mmHg 46%
    19:00 +16°C° 0 mm 2 m/S 627 mmHg 51%
    20:00 +15°C° 0 mm 2 m/S 627 mmHg 55%
    21:00 +14°C° 0 mm 2 m/S 627 mmHg 58%
    22:00 +13°C° 0 mm 1 m/S 627 mmHg 61%
    23:00 +13°C° 0 mm 1 m/S 627 mmHg 63%

    21 August, Dienstag

    Zeit Temperatur Niederschläge Wind Luftdruck Luftfeuchtigkeit
    00:00 +12°C° 0 mm 1 m/S 627 mmHg 65%
    01:00 +11°C° 0 mm 1 m/S 626 mmHg 66%
    02:00 +11°C° 0 mm 1 m/S 626 mmHg 67%
    03:00 +11°C° 0 mm 1 m/S 626 mmHg 68%
    04:00 +10°C° 0 mm 1 m/S 626 mmHg 68%
    05:00 +12°C° 0 mm 1 m/S 627 mmHg 62%
    06:00 +14°C° 0 mm 1 m/S 628 mmHg 56%
    07:00 +16°C° 0 mm 1 m/S 629 mmHg 50%
    08:00 +18°C° 0 mm 2 m/S 629 mmHg 44%
    09:00 +20°C° 0 mm 3 m/S 630 mmHg 37%
    10:00 +22°C° 0 mm 3 m/S 631 mmHg 31%
    11:00 +23°C° 0 mm 4 m/S 631 mmHg 28%
    12:00 +23°C° 0 mm 4 m/S 631 mmHg 25%
    13:00 +25°C° 0 mm 4 m/S 631 mmHg 22%
    14:00 +25°C° 0 mm 4 m/S 631 mmHg 22%
    15:00 +25°C° 0 mm 4 m/S 630 mmHg 21%
    16:00 +23°C° 0 mm 4 m/S 630 mmHg 21%
    17:00 +21°C° 0 mm 3 m/S 629 mmHg 25%
    18:00 +18°C° 0 mm 3 m/S 629 mmHg 29%
    19:00 +14°C° 0 mm 3 m/S 628 mmHg 33%
    20:00 +14°C° 0 mm 2 m/S 628 mmHg 37%
    21:00 +13°C° 0 mm 2 m/S 627 mmHg 40%
    22:00 +11°C° 0 mm 1 m/S 627 mmHg 44%
    23:00 +11°C° 0 mm 1 m/S 627 mmHg 45%

    22 August, Mittwoch

    Zeit Temperatur Niederschläge Wind Luftdruck Luftfeuchtigkeit
    00:00 +10°C° 0 mm 1 m/S 627 mmHg 46%
    01:00 +10°C° 0 mm 1 m/S 627 mmHg 47%
    02:00 +10°C° 0 mm 1 m/S 627 mmHg 48%
    03:00 +9°C° 0 mm 1 m/S 626 mmHg 49%
    04:00 +9°C° 0 mm 1 m/S 626 mmHg 49%
    05:00 +11°C° 0 mm 1 m/S 627 mmHg 45%
    06:00 +13°C° 0 mm 1 m/S 628 mmHg 41%
    07:00 +15°C° 0 mm 1 m/S 629 mmHg 36%
    08:00 +18°C° 0 mm 1 m/S 630 mmHg 32%
    09:00 +20°C° 0 mm 2 m/S 630 mmHg 28%
    10:00 +23°C° 0 mm 2 m/S 631 mmHg 24%
    11:00 +24°C° 0 mm 2 m/S 631 mmHg 22%
    12:00 +25°C° 0 mm 2 m/S 631 mmHg 20%
    13:00 +26°C° 0 mm 2 m/S 631 mmHg 18%
    14:00 +25°C° 0 mm 2 m/S 631 mmHg 19%
    15:00 +25°C° 0 mm 2 m/S 630 mmHg 19%
    16:00 +25°C° 0 mm 2 m/S 630 mmHg 20%
    17:00 +21°C° 0 mm 2 m/S 629 mmHg 24%
    18:00 +19°C° 0 mm 2 m/S 628 mmHg 28%
    19:00 +16°C° 0 mm 2 m/S 628 mmHg 33%
    20:00 +15°C° 0 mm 2 m/S 627 mmHg 35%
    21:00 +14°C° 0 mm 2 m/S 627 mmHg 38%
    22:00 +12°C° 0 mm 1 m/S 627 mmHg 41%
    23:00 +12°C° 0 mm 1 m/S 626 mmHg 42%
    Mehr zeigen